User: anonymous   Login
Location: Unspecified
(0.0000°N, 0.0000°E)
Time: 10:21:37
(UTC+00:00)
Language:

1KUNS-PF - Orbit

View from above orbital plane
View from above orbital plane
View from above satellite
View from above satellite

Ground track
Ground track

The orbit data is extracted from the following two-line orbital elements,

1 43467U 98067NQ  19107.87137183 +.00012861 +00000-0 +15357-3 0  9992
2 43467 051.6367 290.1981 0002682 191.3856 168.7078 15.61413883053213
Epoch (UTC): 17 April 2019 20:54:46
Eccentricity: 0.0002682
inclination: 51.6367°
perigee height: 382 km
apogee height: 385 km
right ascension of ascending node: 290.1981°
argument of perigee: 191.3856°
revolutions per day: 15.61413883
mean anomaly at epoch: 168.7078°
orbit number at epoch: 5321

The dashed part of the orbit path shows where the satellite is in the earth's shadow,  

DLR